Theta_e
312 312 311 311 311 311 311 312 312 313 314 314 316 315 317 316 311 311 312 312 312 312 310 310 311 313 313 314 312 312 311 310 310 310 309 311 311 311 310 308 309 309 308 306 306 304 304
312 312 312 311 312 311 311 311 311 310 310 311 313 314 314 316 316 314 313 312 312 312 311 311 311 312 313 313 312 312 312 310 310 311 310 309 310 310 309 307 308 308 307 306 305 305 305
311 311 311 311 311 311 311 310 310 309 309 309 310 310 311 312 315 316 314 314 312 313 312 311 311 311 313 312 311 312 312 310 310 310 311 311 311 311 310 308 307 307 310 308 306 306 306
310 310 310 311 311 310 310 310 309 309 308 308 309 310 310 311 312 315 315 314 312 312 312 312 311 311 314 311 311 311 312 312 310 310 310 311 311 312 310 308 308 309 310 310 309 307 307
310 309 309 310 310 310 310 309 309 308 309 308 308 309 311 311 312 313 314 313 312 312 311 311 312 312 314 312 312 311 312 312 310 309 311 312 312 312 310 311 310 307 310 312 310 306 306
309 309 309 309 309 309 309 308 308 308 308 309 309 309 310 310 312 313 313 313 313 311 311 310 312 312 312 311 311 311 311 312 311 312 315 314 314 306 303 306 307 310 310 310 310 308 306
308 308 308 308 308 308 308 307 307 307 308 308 309 308 309 311 312 312 312 313 311 313 311 313 312 311 311 311 311 312 311 313 314 314 311 312 310 308 306 305 307 308 309 309 307 306 307
307 307 308 307 307 307 307 306 306 307 307 307 308 308 309 311 312 312 312 314 313 314 313 310 310 310 310 310 311 311 311 313 314 312 311 310 312 304 304 305 307 308 310 308 308 305 304
306 307 307 307 306 306 306 306 306 306 307 307 308 308 308 309 312 310 312 312 311 311 314 313 310 310 310 310 310 309 310 311 312 312 309 310 306 303 305 307 308 309 310 309 307 303 304
306 306 306 306 305 305 305 305 306 306 306 306 307 307 308 309 311 310 310 311 312 312 311 314 310 311 310 310 312 310 310 312 311 311 307 306 303 305 306 308 306 310 305 305 306 304 307
305 305 305 305 305 305 305 305 305 306 306 306 307 307 308 309 310 310 310 311 314 316 308 312 311 309 311 310 310 311 310 312 310 310 307 306 306 307 309 308 305 308 304 305 304 297 298
305 304 304 304 304 304 305 305 305 305 306 306 307 307 307 308 310 310 311 312 315 311 305 313 310 310 309 311 310 310 311 310 310 309 304 303 302 303 304 303 303 303 308 304 302 304 304
304 304 304 304 304 304 304 305 305 305 306 306 306 307 307 308 308 309 312 315 309 308 309 310 310 308 307 309 309 308 309 302 305 305 312 308 305 301 301 307 305 305 304 303 305 305 308
303 303 303 304 304 304 304 305 305 305 306 306 306 307 307 308 308 309 313 309 310 309 312 308 308 307 309 308 309 308 309 307 307 306 301 307 306 304 300 303 302 306 300 303 304 309 310
303 303 303 304 304 304 305 305 305 305 306 306 306 307 308 308 308 309 314 305 305 310 307 306 307 309 309 309 306 307 308 303 306 308 305 309 310 299 298 299 302 306 308 304 298 299 306
302 303 304 304 305 305 305 305 305 305 306 306 307 308 309 308 308 308 305 307 309 304 304 306 307 308 308 308 308 308 307 302 304 303 304 308 305 301 298 299 299 301 300 304 299 304 311
303 303 304 305 306 306 306 306 305 306 306 306 307 309 310 308 308 311 302 304 307 303 304 305 307 308 307 307 307 307 305 305 304 302 304 298 302 304 301 301 299 299 295 297 300 304 309
304 304 306 307 307 307 307 307 306 306 306 307 307 305 311 308 308 303 305 305 304 303 303 303 303 304 306 307 307 307 306 308 303 302 302 302 298 301 306 293 293 294 297 298 305 302 301
306 307 308 308 308 308 308 308 308 307 308 307 310 313 312 309 305 305 305 305 304 304 303 304 304 304 304 305 305 304 308 304 303 302 300 298 300 300 304 298 295 295 292 294 300 300 308
309 309 309 309 309 309 309 309 309 309 308 309 311 303 308 310 310 306 307 307 307 304 303 303 303 303 303 304 303 304 307 303 302 302 305 304 299 302 305 303 298 298 301 302 303 305 303
310 310 310 310 309 309 310 309 309 310 309 309 310 307 308 302 307 307 308 308 308 308 303 303 303 302 300 301 305 304 304 304 301 301 305 300 300 303 304 305 302 302 306 304 305 309 311
309 309 308 308 308 306 303 301 300 302 309 310 310 310 309 308 310 309 306 309 309 308 307 307 304 304 302 300 304 305 307 307 306 301 299 298 304 300 298 304 303 307 306 304 306 307 306
308 306 303 300 298 297 296 296 297 298 300 306 307 307 308 305 306 303 305 307 308 308 309 309 307 307 306 306 305 305 305 306 306 303 301 301 303 304 310 307 305 307 305 304 295 289 300
303 298 296 295 295 295 295 295 295 296 296 297 298 302 306 302 302 305 304 305 301 300 304 305 305 307 304 303 303 305 304 303 303 303 304 305 302 305 308 306 308 294 289 287 295 297 297
295 295 294 294 294 294 294 294 294 294 294 295 295 296 299 296 299 300 299 299 301 299 303 303 303 301 301 302 300 300 300 299 298 294 296 301 305 306 306 306 304 300 297 294 296 298 295
294 293 293 293 293 294 293 294 294 293 293 294 293 293 295 296 297 297 298 298 294 294 295 300 298 299 300 297 299 300 298 299 299 299 294 299 300 305 305 306 304 296 296 296 295 296 295
293 293 293 293 293 293 293 293 293 293 293 293 292 292 293 295 296 295 297 296 297 295 291 293 295 295 298 295 299 298 297 298 297 300 297 298 300 302 304 305 302 297 297 297 299 294 294
293 293 293 293 292 292 292 292 292 292 292 292 293 292 293 293 294 295 294 294 294 294 290 294 291 294 294 292 296 294 296 292 294 297 297 296 296 294 296 297 294 296 296 297 294 294 292
292 292 292 292 292 292 291 291 292 292 292 292 292 292 292 292 293 294 294 294 294 293 293 294 294 295 295 294 290 289 294 287 287 292 294 293 298 299 297 296 295 295 296 293 292 292 292
Wind_Speed
9 9 10 11 11 11 11 11 10 9 8 8 8 8 7 5 4 4 5 5 5 3 2 2 2 3 1 0 4 7 5 5 3 4 3 3 3 2 3 3 1 1 1 1 2 3 5
8 9 9 10 11 11 11 11 10 9 9 9 9 9 9 7 5 5 5 5 4 4 2 2 2 2 1 1 6 7 4 3 3 3 3 2 2 4 5 2 2 1 1 2 2 4 4
7 8 9 9 10 11 11 12 11 10 9 9 9 10 10 8 7 6 5 5 6 4 2 1 1 2 2 1 6 8 3 1 3 3 4 4 3 1 3 2 2 1 3 2 1 3 2
6 7 8 8 9 10 11 12 12 11 10 10 10 10 11 9 8 6 6 5 1 1 3 2 1 1 1 1 3 9 3 1 1 2 2 2 4 5 3 4 3 4 4 5 1 4 2
5 6 7 8 9 10 11 11 12 12 12 11 11 11 11 10 8 6 7 5 6 5 5 4 3 2 2 2 3 7 5 1 1 1 1 2 2 3 3 3 4 7 1 3 6 7 3
4 5 7 8 8 9 11 11 12 12 12 12 11 11 11 11 6 6 4 2 7 4 3 3 3 1 2 3 5 3 6 1 1 2 3 2 3 4 5 5 2 3 3 3 5 4 2
3 5 6 7 8 9 10 11 12 12 13 12 11 11 11 10 5 6 2 1 2 2 3 2 1 2 2 6 2 2 6 0 1 2 2 3 5 1 2 1 1 3 1 3 4 2 7
3 4 5 7 8 9 11 12 13 13 13 13 11 11 11 9 5 6 2 2 1 3 0 2 2 1 3 5 2 4 6 1 1 2 2 5 1 2 2 1 2 1 2 5 5 4 2
3 4 5 7 8 10 11 12 13 13 14 13 12 10 10 9 3 5 5 2 2 1 0 1 2 1 1 4 1 4 5 1 3 3 4 3 2 2 2 1 1 2 3 1 4 8 0
3 4 6 7 9 10 11 12 13 14 14 14 12 10 9 8 1 5 3 2 1 1 4 2 1 0 2 2 1 4 5 2 4 3 4 4 2 2 1 1 3 2 2 1 2 4 3
3 5 6 8 9 10 12 13 14 14 14 14 13 10 8 6 3 3 2 1 2 2 4 1 1 1 2 1 2 2 5 2 3 3 5 2 2 2 3 2 1 3 2 1 3 4 4
3 4 6 8 10 11 12 13 14 14 14 14 12 11 8 5 2 3 2 1 2 6 4 1 0 2 2 1 1 1 1 3 4 4 5 2 1 2 0 1 1 3 3 4 4 2 2
3 4 6 8 10 11 12 14 15 15 15 14 12 9 6 5 4 3 1 2 5 4 2 2 1 3 2 2 2 2 3 5 3 2 2 1 1 0 1 1 2 4 5 4 5 4 5
4 4 6 8 10 12 13 14 15 16 15 14 11 9 5 5 4 1 2 5 2 2 2 2 2 2 2 3 1 1 2 1 1 4 3 3 5 4 2 3 5 2 5 5 5 3 4
4 5 7 9 11 12 14 15 16 16 16 14 11 6 3 6 3 0 2 4 6 4 1 4 3 1 1 0 1 2 3 4 5 4 7 4 4 1 3 2 2 2 2 3 6 1 1
5 6 8 10 12 14 16 17 17 16 16 13 10 3 5 8 5 1 4 5 2 1 0 1 3 1 2 2 1 1 2 4 2 3 1 3 2 2 1 2 3 3 1 3 2 0 5
5 7 9 11 13 15 17 18 18 17 16 13 5 1 6 9 3 1 3 4 1 1 1 1 2 3 3 2 2 3 3 3 3 4 4 3 3 1 1 6 7 1 1 3 3 4 5
7 8 10 11 13 15 17 19 20 19 17 13 2 2 7 8 2 3 2 1 1 1 1 1 1 2 2 1 3 4 5 3 7 9 6 1 5 3 6 1 1 2 5 4 4 5 4
9 10 11 12 13 15 16 17 18 19 19 15 3 2 6 5 3 2 3 1 0 0 1 0 1 2 0 3 2 4 3 1 8 6 6 6 1 3 6 4 2 2 4 3 3 2 6
11 11 11 13 14 15 17 18 17 17 16 11 4 3 5 8 6 4 2 1 1 1 2 1 1 0 0 3 4 4 3 2 6 3 4 7 3 8 8 6 5 2 5 6 6 3 3
12 11 12 14 15 16 17 18 17 15 12 8 5 2 2 2 3 1 1 1 2 2 1 1 1 3 4 2 3 5 2 1 2 3 4 3 6 6 7 8 5 8 9 10 12 15 12
12 12 14 15 17 17 18 18 17 15 11 7 3 3 2 1 3 2 2 1 1 4 1 1 2 3 4 4 6 6 1 2 6 2 5 3 4 1 5 10 10 20 13 12 16 19 18
12 14 15 16 18 19 20 19 19 17 12 7 6 3 2 3 3 3 3 4 4 5 4 2 2 3 5 6 9 15 15 12 10 6 7 5 3 3 17 5 5 11 16 17 2 2 2
13 14 15 16 18 20 21 22 22 22 21 14 10 4 2 1 2 3 6 5 5 7 4 11 11 3 6 18 20 17 22 25 21 18 14 8 4 2 9 1 15 5 2 4 9 5 6
14 15 16 17 18 19 20 23 24 23 21 18 14 7 4 1 4 5 13 5 7 10 5 6 4 10 16 11 4 6 4 4 1 3 3 7 7 5 6 8 2 2 4 3 4 3 3
13 14 16 17 19 19 20 20 20 21 19 18 19 15 4 3 2 4 3 5 1 3 7 3 10 13 10 4 2 2 3 3 4 3 4 2 1 4 1 5 6 2 2 4 3 3 6
15 16 16 15 16 17 18 19 20 20 20 18 16 16 6 3 2 4 3 1 3 2 2 5 10 7 9 2 0 3 3 2 2 4 4 3 2 6 8 7 1 3 3 5 3 4 6
13 13 14 15 16 17 18 19 19 19 19 19 18 17 9 2 2 1 3 3 1 2 2 6 4 5 5 4 1 2 1 2 3 2 2 3 2 4 1 3 6 2 3 4 7 11 12
13 14 15 16 17 17 18 18 19 19 19 18 16 16 9 5 2 3 4 3 2 3 3 2 1 3 1 2 2 2 3 3 2 4 1 3 4 2 5 3 2 3 6 14 18 17 9
Wind_Direction
75 62 55 55 52 47 46 42 37 32 26 25 20 15 6 357 350 332 357 3 18 345 285 233 246 18 353 317 355 346 4 15 28 50 104 130 129 132 139 127 108 130 196 222 280 296 282
76 66 54 48 48 44 39 37 31 27 21 17 10 3 359 352 326 329 323 328 317 323 280 273 255 293 306 189 2 0 5 32 41 57 72 97 129 98 108 92 125 171 246 334 332 319 295
77 69 57 46 41 39 35 32 26 22 16 10 7 1 353 344 326 295 313 292 315 268 262 329 281 249 265 157 12 2 13 39 57 73 72 81 96 99 111 93 100 70 19 12 340 336 326
67 64 58 47 38 33 31 27 23 17 10 3 0 353 351 340 327 296 296 282 340 323 197 357 329 260 248 283 330 5 356 40 278 65 94 82 105 89 56 114 38 32 47 10 349 355 17
73 57 49 43 35 29 25 21 18 15 9 0 357 352 346 344 332 315 302 268 224 321 245 263 260 254 233 299 318 348 1 338 101 135 86 89 103 77 64 63 21 9 285 334 329 35 323
65 55 44 35 30 25 19 17 13 10 7 2 357 352 348 344 337 337 327 252 216 277 272 218 245 273 246 308 307 324 356 4 139 139 111 67 66 67 34 54 221 284 337 319 263 340 2
59 51 42 32 24 19 15 11 10 7 5 3 357 355 353 351 356 350 347 149 209 232 221 214 198 233 293 328 296 318 350 343 79 60 49 32 67 107 168 91 111 131 201 270 259 39 348
45 43 34 26 20 15 12 8 5 4 3 1 357 356 357 357 353 6 1 202 255 164 226 212 235 265 313 349 343 358 359 127 96 91 9 26 96 177 145 132 132 177 280 290 285 8 9
37 29 29 23 17 15 10 6 4 0 359 359 355 355 357 354 6 4 46 81 110 145 149 286 251 265 311 344 9 337 13 62 71 82 29 141 151 149 179 105 46 235 201 236 247 324 88
54 25 20 19 16 13 10 6 3 0 358 355 353 353 356 356 359 1 49 54 48 6 68 280 305 309 333 354 344 7 21 66 37 135 109 92 192 192 151 191 128 280 128 97 302 35 279
47 33 16 14 13 10 8 4 2 358 357 356 352 352 355 7 345 7 9 33 59 94 20 281 292 294 338 15 337 24 28 41 117 111 90 230 169 185 212 207 146 224 11 272 117 88 47
56 36 21 14 13 7 4 1 359 356 354 355 353 349 348 351 8 5 3 32 92 43 264 304 322 331 352 7 12 18 50 73 100 96 52 91 48 43 9 335 242 353 90 49 53 95 22
64 33 24 16 10 7 2 358 357 356 352 351 349 348 347 349 338 347 49 128 38 126 351 337 319 27 359 310 337 47 39 11 155 92 212 79 227 247 38 94 4 66 56 333 351 5 226
67 33 21 15 9 5 1 0 356 353 354 346 346 344 343 359 354 357 141 56 169 227 243 357 310 313 250 16 259 357 84 284 221 81 98 147 307 171 19 147 181 76 138 153 246 235 280
49 37 23 15 9 5 2 360 358 352 353 349 343 349 18 8 358 56 168 71 212 194 304 354 309 316 296 17 235 358 203 191 202 188 161 151 271 77 53 71 89 173 180 144 99 44 41
53 32 24 17 12 7 4 360 359 355 352 349 342 18 46 4 354 212 80 221 219 192 319 155 228 179 249 273 299 311 197 225 194 209 166 179 349 18 103 91 38 142 147 65 11 260 242
54 39 27 19 14 10 5 1 358 360 356 352 349 91 8 352 349 99 152 220 245 249 220 191 252 279 235 270 222 241 247 235 170 155 97 133 108 256 128 199 181 44 336 33 124 171 203
53 39 29 22 17 10 5 2 360 1 1 1 1 62 357 351 42 47 114 266 283 296 287 303 214 208 230 279 257 246 231 217 172 154 166 148 146 217 223 295 114 199 212 157 147 249 235
54 44 32 22 15 9 6 5 4 2 4 3 16 31 5 8 91 355 302 286 250 307 246 254 272 207 197 260 283 219 262 122 168 160 168 197 258 352 322 359 30 216 227 169 124 78 211
53 44 32 22 15 10 6 4 1 4 3 7 358 22 35 59 65 114 24 294 280 221 249 229 246 93 39 260 218 279 260 204 201 220 180 161 181 184 225 206 134 192 204 208 184 196 234
52 39 28 18 12 8 5 4 8 7 12 20 32 68 42 318 3 21 155 284 292 309 297 274 267 225 175 277 288 234 253 339 196 218 162 153 217 211 241 238 192 212 220 193 209 239 247
45 35 22 15 9 7 4 4 8 11 24 50 58 26 344 307 318 336 27 21 358 333 279 311 230 327 181 206 226 278 323 215 229 94 178 181 269 171 258 246 247 258 252 238 241 248 255
34 24 21 19 16 12 13 15 17 22 28 67 58 25 357 17 25 66 360 351 20 354 300 284 328 276 255 264 287 280 271 252 256 188 203 175 204 207 274 200 257 261 229 230 229 167 185
29 26 25 31 33 30 28 29 31 32 39 44 47 37 35 294 70 43 8 343 15 327 270 306 334 324 334 321 308 283 264 254 245 243 230 229 178 219 281 107 263 299 279 168 111 78 77
35 38 39 37 35 35 32 32 33 35 39 37 45 38 21 73 5 16 352 356 349 350 326 309 3 337 329 317 322 332 310 333 77 43 334 246 228 252 249 233 280 158 201 169 137 148 170
51 45 42 36 34 33 32 31 34 36 36 35 40 36 18 114 20 318 327 20 302 328 339 329 334 341 1 44 28 274 268 319 303 317 21 14 28 221 211 257 251 205 78 95 118 185 161
45 37 35 34 32 31 32 32 32 31 30 30 31 24 27 99 75 21 48 314 343 16 239 318 338 340 6 45 306 246 260 289 285 303 345 317 314 253 262 268 300 153 149 109 183 193 149
39 33 32 32 30 28 27 26 24 23 23 22 19 17 22 116 101 57 323 293 299 46 109 328 0 4 2 32 20 296 292 281 331 285 238 212 227 232 311 279 292 146 118 200 130 126 138
34 30 28 27 24 22 18 17 14 13 12 14 17 9 26 63 45 117 128 97 23 6 301 276 229 286 316 327 356 3 307 344 182 272 293 289 205 241 206 240 17 334 116 127 133 140 145